QPF
0.00 0.00 0.00 0.00 0.00 0.00 0.00 0.00 0.00 0.00 0.00 0.00 0.00 0.00 0.00 0.00 0.00 0.00 0.00 0.02 0.03 0.05 0.05 0.05 0.04 0.03 0.03 0.02 0.02 0.03 0.04 0.04 0.04 0.04 0.03 0.02 0.02 0.02 0.01 0.01 0.01 0.01 0.01
0.00 0.00 0.00 0.00 0.00 0.00 0.00 0.00 0.00 0.00 0.00 0.00 0.00 0.00 0.00 0.00 0.00 0.00 0.00 0.01 0.01 0.02 0.04 0.05 0.04 0.04 0.03 0.03 0.02 0.03 0.04 0.04 0.04 0.04 0.04 0.02 0.02 0.02 0.02 0.02 0.02 0.01 0.01
0.02 0.01 0.00 0.00 0.00 0.00 0.00 0.00 0.00 0.00 0.00 0.00 0.00 0.00 0.00 0.00 0.00 0.00 0.00 0.00 0.00 0.01 0.02 0.03 0.03 0.03 0.03 0.03 0.03 0.03 0.03 0.04 0.04 0.04 0.04 0.03 0.02 0.02 0.02 0.02 0.02 0.01 0.01
0.02 0.01 0.01 0.00 0.00 0.00 0.00 0.00 0.00 0.00 0.00 0.00 0.00 0.00 0.00 0.00 0.00 0.00 0.00 0.00 0.00 0.00 0.01 0.01 0.01 0.02 0.02 0.03 0.03 0.03 0.03 0.03 0.04 0.04 0.03 0.03 0.03 0.02 0.02 0.01 0.02 0.02 0.01
0.02 0.01 0.01 0.00 0.00 0.00 0.00 0.00 0.00 0.00 0.00 0.00 0.00 0.00 0.00 0.00 0.00 0.00 0.00 0.00 0.00 0.00 0.00 0.00 0.00 0.01 0.01 0.01 0.03 0.03 0.03 0.02 0.03 0.04 0.03 0.03 0.03 0.02 0.02 0.02 0.01 0.01 0.01
0.02 0.02 0.01 0.01 0.01 0.01 0.00 0.00 0.00 0.00 0.00 0.00 0.00 0.00 0.00 0.00 0.00 0.00 0.00 0.00 0.00 0.00 0.00 0.00 0.00 0.00 0.00 0.01 0.01 0.03 0.03 0.03 0.03 0.03 0.04 0.03 0.03 0.02 0.02 0.02 0.02 0.02 0.02
0.02 0.02 0.02 0.01 0.01 0.01 0.01 0.00 0.00 0.00 0.00 0.00 0.00 0.00 0.00 0.00 0.00 0.00 0.00 0.00 0.00 0.00 0.00 0.00 0.00 0.00 0.00 0.00 0.01 0.02 0.02 0.03 0.03 0.03 0.03 0.04 0.03 0.03 0.02 0.01 0.02 0.02 0.02
0.03 0.02 0.02 0.02 0.02 0.02 0.02 0.01 0.01 0.01 0.00 0.00 0.00 0.00 0.00 0.01 0.01 0.00 0.00 0.00 0.00 0.00 0.00 0.00 0.00 0.00 0.00 0.00 0.01 0.01 0.01 0.02 0.03 0.04 0.04 0.04 0.04 0.04 0.03 0.02 0.01 0.01 0.01
0.04 0.03 0.03 0.02 0.02 0.02 0.02 0.02 0.02 0.02 0.01 0.01 0.01 0.01 0.00 0.00 0.01 0.01 0.00 0.00 0.00 0.00 0.00 0.00 0.00 0.00 0.00 0.00 0.00 0.00 0.00 0.01 0.02 0.03 0.05 0.05 0.05 0.05 0.04 0.03 0.02 0.02 0.02
0.06 0.05 0.03 0.03 0.03 0.03 0.03 0.02 0.02 0.02 0.02 0.02 0.01 0.01 0.01 0.00 0.01 0.00 0.00 0.00 0.00 0.00 0.00 0.00 0.00 0.00 0.00 0.00 0.00 0.00 0.00 0.00 0.01 0.02 0.04 0.05 0.06 0.06 0.05 0.05 0.04 0.02 0.02
0.06 0.05 0.04 0.03 0.03 0.03 0.03 0.03 0.03 0.03 0.03 0.02 0.02 0.01 0.01 0.01 0.01 0.01 0.00 0.00 0.00 0.00 0.00 0.00 0.00 0.00 0.00 0.00 0.00 0.00 0.00 0.00 0.01 0.02 0.03 0.04 0.06 0.08 0.07 0.06 0.05 0.04 0.02
0.06 0.05 0.04 0.04 0.03 0.03 0.03 0.03 0.03 0.03 0.03 0.02 0.02 0.02 0.01 0.01 0.01 0.01 0.00 0.00 0.00 0.00 0.00 0.00 0.00 0.00 0.00 0.00 0.00 0.00 0.00 0.00 0.01 0.01 0.02 0.03 0.05 0.06 0.09 0.07 0.06 0.06 0.05
0.08 0.05 0.04 0.04 0.04 0.04 0.03 0.03 0.03 0.03 0.03 0.02 0.02 0.02 0.01 0.01 0.01 0.01 0.01 0.00 0.00 0.00 0.00 0.00 0.00 0.00 0.00 0.00 0.00 0.00 0.00 0.00 0.00 0.01 0.01 0.02 0.03 0.05 0.06 0.09 0.08 0.06 0.06
0.08 0.07 0.05 0.03 0.03 0.04 0.04 0.04 0.04 0.03 0.03 0.02 0.02 0.02 0.02 0.01 0.01 0.01 0.01 0.01 0.01 0.00 0.00 0.00 0.00 0.00 0.00 0.00 0.00 0.00 0.00 0.00 0.00 0.00 0.01 0.02 0.03 0.04 0.05 0.06 0.08 0.08 0.06
0.08 0.08 0.06 0.05 0.03 0.03 0.03 0.03 0.04 0.03 0.03 0.02 0.02 0.02 0.02 0.01 0.01 0.01 0.01 0.02 0.02 0.01 0.00 0.00 0.00 0.00 0.00 0.00 0.00 0.00 0.00 0.00 0.00 0.00 0.01 0.02 0.03 0.04 0.05 0.04 0.06 0.08 0.08
0.07 0.07 0.07 0.06 0.05 0.04 0.03 0.03 0.03 0.03 0.03 0.03 0.02 0.02 0.02 0.01 0.01 0.02 0.02 0.02 0.02 0.02 0.01 0.00 0.00 0.00 0.00 0.00 0.00 0.00 0.00 0.00 0.00 0.00 0.01 0.01 0.02 0.04 0.04 0.05 0.04 0.05 0.07
0.07 0.07 0.05 0.06 0.05 0.05 0.04 0.04 0.03 0.03 0.03 0.03 0.03 0.02 0.02 0.01 0.01 0.01 0.01 0.02 0.02 0.02 0.01 0.00 0.00 0.01 0.01 0.01 0.01 0.01 0.01 0.00 0.00 0.01 0.01 0.01 0.01 0.02 0.03 0.04 0.04 0.04 0.05
0.06 0.06 0.06 0.06 0.06 0.05 0.04 0.03 0.03 0.03 0.03 0.03 0.03 0.02 0.02 0.01 0.01 0.01 0.01 0.01 0.01 0.01 0.01 0.01 0.00 0.01 0.01 0.01 0.01 0.01 0.01 0.00 0.00 0.01 0.01 0.01 0.01 0.01 0.02 0.03 0.04 0.04 0.04
0.04 0.04 0.05 0.05 0.05 0.06 0.05 0.04 0.03 0.03 0.03 0.03 0.03 0.02 0.02 0.02 0.02 0.01 0.01 0.01 0.01 0.01 0.01 0.01 0.01 0.01 0.01 0.01 0.01 0.01 0.01 0.01 0.01 0.01 0.01 0.01 0.01 0.01 0.01 0.01 0.02 0.03 0.03
0.03 0.03 0.03 0.04 0.04 0.05 0.05 0.04 0.03 0.03 0.03 0.04 0.03 0.03 0.02 0.02 0.02 0.02 0.02 0.02 0.02 0.01 0.01 0.01 0.01 0.01 0.01 0.01 0.01 0.02 0.01 0.01 0.01 0.01 0.01 0.01 0.01 0.00 0.01 0.01 0.01 0.02 0.02
0.03 0.02 0.02 0.03 0.04 0.04 0.05 0.05 0.04 0.03 0.04 0.04 0.04 0.04 0.03 0.02 0.02 0.02 0.02 0.02 0.02 0.02 0.01 0.01 0.01 0.01 0.01 0.01 0.01 0.02 0.01 0.01 0.01 0.01 0.01 0.01 0.00 0.00 0.01 0.01 0.01 0.02 0.02
0.03 0.02 0.02 0.02 0.03 0.03 0.04 0.05 0.05 0.05 0.04 0.04 0.04 0.04 0.04 0.03 0.02 0.02 0.02 0.02 0.02 0.02 0.02 0.02 0.02 0.01 0.01 0.01 0.01 0.02 0.02 0.01 0.01 0.01 0.01 0.01 0.01 0.01 0.01 0.01 0.01 0.01 0.02
0.03 0.02 0.02 0.01 0.02 0.02 0.04 0.04 0.05 0.05 0.04 0.04 0.04 0.05 0.04 0.04 0.03 0.03 0.02 0.02 0.01 0.01 0.02 0.02 0.02 0.01 0.01 0.01 0.01 0.02 0.02 0.02 0.01 0.01 0.01 0.01 0.01 0.01 0.01 0.01 0.01 0.01 0.01
0.03 0.03 0.02 0.01 0.02 0.02 0.03 0.04 0.05 0.05 0.04 0.04 0.03 0.04 0.05 0.04 0.03 0.03 0.03 0.03 0.02 0.02 0.01 0.01 0.01 0.01 0.01 0.01 0.02 0.02 0.03 0.03 0.03 0.02 0.01 0.02 0.01 0.01 0.01 0.01 0.01 0.01 0.01
0.02 0.02 0.02 0.02 0.02 0.02 0.03 0.04 0.05 0.05 0.05 0.05 0.03 0.03 0.04 0.05 0.04 0.03 0.03 0.03 0.03 0.02 0.02 0.02 0.02 0.02 0.02 0.02 0.02 0.03 0.03 0.03 0.03 0.02 0.02 0.02 0.02 0.01 0.01 0.01 0.01 0.01 0.01
0.02 0.02 0.02 0.02 0.01 0.02 0.02 0.03 0.04 0.05 0.05 0.05 0.04 0.03 0.04 0.04 0.06 0.04 0.03 0.03 0.03 0.02 0.03 0.03 0.03 0.03 0.02 0.02 0.02 0.03 0.02 0.02 0.02 0.02 0.02 0.02 0.02 0.01 0.01 0.01 0.01 0.01 0.01
MSLP
1023.20 1023.90 1024.57 1025.17 1025.69 1026.15 1026.55 1026.91 1027.26 1027.61 1027.98 1028.34 1028.70 1029.01 1029.26 1029.42 1029.47 1029.41 1029.26 1029.06 1028.83 1028.62 1028.46 1028.38 1028.37 1028.42 1028.52 1028.63 1028.71 1028.74 1028.70 1028.61 1028.46 1028.29 1028.12 1027.96 1027.84 1027.76 1027.69 1027.63 1027.56 1027.46 1027.33
1023.42 1024.13 1024.84 1025.54 1026.18 1026.77 1027.30 1027.77 1028.20 1028.60 1028.98 1029.34 1029.69 1030.00 1030.24 1030.41 1030.48 1030.44 1030.31 1030.09 1029.83 1029.56 1029.33 1029.15 1029.04 1029.02 1029.05 1029.11 1029.17 1029.20 1029.19 1029.13 1029.02 1028.88 1028.74 1028.61 1028.51 1028.44 1028.39 1028.35 1028.30 1028.24 1028.14
1023.61 1024.30 1025.04 1025.81 1026.57 1027.30 1027.97 1028.58 1029.11 1029.58 1030.00 1030.38 1030.71 1031.01 1031.25 1031.42 1031.50 1031.48 1031.35 1031.14 1030.86 1030.54 1030.24 1029.97 1029.77 1029.65 1029.59 1029.59 1029.62 1029.64 1029.65 1029.62 1029.56 1029.47 1029.38 1029.29 1029.21 1029.16 1029.13 1029.11 1029.08 1029.03 1028.95
1023.84 1024.48 1025.22 1026.03 1026.88 1027.72 1028.53 1029.26 1029.90 1030.46 1030.93 1031.33 1031.67 1031.96 1032.20 1032.37 1032.46 1032.46 1032.36 1032.17 1031.89 1031.56 1031.21 1030.87 1030.59 1030.37 1030.23 1030.15 1030.12 1030.12 1030.13 1030.13 1030.11 1030.07 1030.03 1029.98 1029.94 1029.91 1029.90 1029.89 1029.87 1029.82 1029.76
1024.13 1024.71 1025.42 1026.23 1027.11 1028.03 1028.93 1029.76 1030.50 1031.13 1031.66 1032.09 1032.45 1032.75 1032.99 1033.18 1033.30 1033.34 1033.29 1033.14 1032.90 1032.59 1032.23 1031.86 1031.51 1031.21 1030.98 1030.82 1030.72 1030.68 1030.67 1030.67 1030.68 1030.68 1030.68 1030.67 1030.66 1030.66 1030.65 1030.64 1030.62 1030.57 1030.50
1024.50 1025.01 1025.65 1026.42 1027.29 1028.22 1029.15 1030.04 1030.84 1031.54 1032.11 1032.58 1032.97 1033.29 1033.56 1033.78 1033.96 1034.06 1034.09 1034.02 1033.85 1033.60 1033.27 1032.89 1032.51 1032.15 1031.84 1031.60 1031.43 1031.32 1031.27 1031.25 1031.27 1031.29 1031.31 1031.33 1031.34 1031.35 1031.35 1031.33 1031.30 1031.24 1031.15
1024.91 1025.36 1025.92 1026.62 1027.42 1028.31 1029.22 1030.11 1030.93 1031.65 1032.26 1032.77 1033.19 1033.55 1033.87 1034.15 1034.39 1034.59 1034.71 1034.75 1034.69 1034.52 1034.26 1033.92 1033.54 1033.15 1032.78 1032.46 1032.21 1032.02 1031.91 1031.86 1031.85 1031.87 1031.90 1031.93 1031.96 1031.97 1031.96 1031.94 1031.89 1031.81 1031.71
1025.33 1025.73 1026.21 1026.81 1027.52 1028.31 1029.15 1029.99 1030.79 1031.51 1032.14 1032.68 1033.15 1033.56 1033.94 1034.28 1034.61 1034.91 1035.14 1035.30 1035.36 1035.31 1035.14 1034.86 1034.51 1034.12 1033.71 1033.33 1033.01 1032.75 1032.57 1032.46 1032.42 1032.41 1032.43 1032.47 1032.49 1032.50 1032.50 1032.46 1032.40 1032.31 1032.19
1025.70 1026.07 1026.50 1027.01 1027.61 1028.29 1029.02 1029.78 1030.52 1031.22 1031.85 1032.41 1032.91 1033.38 1033.81 1034.23 1034.64 1035.02 1035.37 1035.64 1035.82 1035.88 1035.82 1035.63 1035.34 1034.97 1034.56 1034.14 1033.77 1033.45 1033.21 1033.04 1032.95 1032.92 1032.92 1032.94 1032.97 1032.98 1032.97 1032.93 1032.86 1032.76 1032.64
1025.97 1026.36 1026.76 1027.20 1027.70 1028.27 1028.89 1029.55 1030.22 1030.87 1031.49 1032.06 1032.59 1033.10 1033.58 1034.06 1034.53 1034.98 1035.40 1035.77 1036.05 1036.21 1036.25 1036.16 1035.94 1035.62 1035.24 1034.83 1034.43 1034.08 1033.79 1033.58 1033.46 1033.40 1033.38 1033.40 1033.42 1033.44 1033.43 1033.39 1033.33 1033.23 1033.11
1026.12 1026.57 1026.98 1027.39 1027.82 1028.29 1028.81 1029.37 1029.97 1030.57 1031.16 1031.73 1032.29 1032.82 1033.33 1033.84 1034.34 1034.83 1035.29 1035.71 1036.06 1036.30 1036.43 1036.42 1036.29 1036.05 1035.72 1035.35 1034.97 1034.61 1034.31 1034.09 1033.94 1033.87 1033.85 1033.86 1033.89 1033.91 1033.92 1033.89 1033.84 1033.75 1033.63
1026.14 1026.67 1027.13 1027.55 1027.95 1028.36 1028.80 1029.29 1029.81 1030.37 1030.93 1031.50 1032.05 1032.59 1033.11 1033.62 1034.12 1034.61 1035.07 1035.50 1035.88 1036.17 1036.37 1036.45 1036.41 1036.25 1036.00 1035.70 1035.37 1035.05 1034.77 1034.56 1034.42 1034.34 1034.33 1034.35 1034.39 1034.43 1034.45 1034.44 1034.40 1034.32 1034.22
1026.05 1026.68 1027.21 1027.66 1028.06 1028.45 1028.85 1029.28 1029.75 1030.27 1030.81 1031.36 1031.91 1032.44 1032.95 1033.44 1033.91 1034.36 1034.79 1035.20 1035.58 1035.89 1036.13 1036.28 1036.32 1036.26 1036.12 1035.90 1035.65 1035.39 1035.17 1034.99 1034.87 1034.82 1034.82 1034.85 1034.91 1034.96 1035.00 1035.01 1034.98 1034.92 1034.83
1025.86 1026.58 1027.19 1027.70 1028.13 1028.51 1028.90 1029.30 1029.75 1030.24 1030.77 1031.31 1031.84 1032.36 1032.85 1033.30 1033.72 1034.12 1034.50 1034.87 1035.21 1035.53 1035.80 1036.00 1036.12 1036.16 1036.11 1036.00 1035.84 1035.66 1035.50 1035.37 1035.29 1035.26 1035.28 1035.33 1035.40 1035.47 1035.52 1035.55 1035.54 1035.49 1035.41
1025.59 1026.39 1027.07 1027.63 1028.10 1028.51 1028.90 1029.30 1029.74 1030.22 1030.74 1031.28 1031.80 1032.30 1032.77 1033.18 1033.55 1033.90 1034.22 1034.54 1034.85 1035.16 1035.44 1035.68 1035.88 1035.99 1036.05 1036.03 1035.96 1035.87 1035.77 1035.69 1035.65 1035.64 1035.67 1035.74 1035.81 1035.89 1035.95 1035.98 1035.98 1035.95 1035.88
1025.30 1026.14 1026.87 1027.47 1027.98 1028.42 1028.83 1029.24 1029.68 1030.17 1030.69 1031.22 1031.75 1032.24 1032.68 1033.06 1033.40 1033.70 1033.97 1034.25 1034.53 1034.83 1035.12 1035.40 1035.64 1035.83 1035.96 1036.03 1036.04 1036.01 1035.97 1035.93 1035.91 1035.92 1035.95 1036.02 1036.09 1036.17 1036.23 1036.26 1036.27 1036.24 1036.18
1025.02 1025.86 1026.61 1027.24 1027.77 1028.24 1028.67 1029.10 1029.56 1030.06 1030.58 1031.12 1031.65 1032.14 1032.57 1032.94 1033.25 1033.52 1033.77 1034.02 1034.28 1034.57 1034.87 1035.17 1035.45 1035.69 1035.88 1036.00 1036.07 1036.09 1036.08 1036.07 1036.06 1036.06 1036.10 1036.15 1036.21 1036.27 1036.33 1036.36 1036.36 1036.34 1036.28
1024.79 1025.61 1026.35 1026.98 1027.54 1028.02 1028.48 1028.93 1029.40 1029.91 1030.45 1030.99 1031.52 1032.00 1032.43 1032.79 1033.10 1033.35 1033.59 1033.83 1034.09 1034.38 1034.68 1035.00 1035.30 1035.58 1035.80 1035.96 1036.06 1036.10 1036.11 1036.10 1036.09 1036.09 1036.10 1036.14 1036.18 1036.23 1036.26 1036.28 1036.28 1036.25 1036.21
1024.68 1025.45 1026.15 1026.78 1027.34 1027.84 1028.31 1028.78 1029.27 1029.78 1030.32 1030.86 1031.38 1031.86 1032.29 1032.64 1032.94 1033.20 1033.44 1033.68 1033.94 1034.22 1034.54 1034.86 1035.18 1035.46 1035.70 1035.87 1035.99 1036.04 1036.06 1036.05 1036.03 1036.01 1036.01 1036.03 1036.05 1036.08 1036.10 1036.10 1036.09 1036.05 1036.00
1024.70 1025.42 1026.09 1026.70 1027.25 1027.76 1028.24 1028.72 1029.22 1029.73 1030.26 1030.79 1031.29 1031.75 1032.16 1032.50 1032.80 1033.05 1033.29 1033.53 1033.79 1034.07 1034.38 1034.71 1035.02 1035.31 1035.55 1035.73 1035.85 1035.91 1035.93 1035.92 1035.90 1035.88 1035.87 1035.87 1035.88 1035.89 1035.89 1035.88 1035.85 1035.80 1035.75
1024.90 1025.57 1026.20 1026.79 1027.34 1027.85 1028.34 1028.82 1029.31 1029.81 1030.31 1030.81 1031.28 1031.70 1032.08 1032.40 1032.67 1032.91 1033.13 1033.37 1033.62 1033.90 1034.20 1034.52 1034.82 1035.10 1035.34 1035.52 1035.64 1035.71 1035.74 1035.74 1035.73 1035.72 1035.72 1035.72 1035.72 1035.72 1035.71 1035.68 1035.63 1035.57 1035.50
1025.27 1025.90 1026.50 1027.08 1027.62 1028.12 1028.61 1029.08 1029.56 1030.03 1030.49 1030.94 1031.35 1031.73 1032.05 1032.33 1032.56 1032.78 1032.98 1033.19 1033.42 1033.68 1033.97 1034.26 1034.55 1034.82 1035.04 1035.22 1035.36 1035.44 1035.49 1035.52 1035.54 1035.55 1035.57 1035.59 1035.60 1035.60 1035.58 1035.54 1035.47 1035.38 1035.29
1025.79 1026.40 1026.98 1027.53 1028.06 1028.56 1029.03 1029.49 1029.94 1030.37 1030.78 1031.17 1031.52 1031.83 1032.09 1032.31 1032.50 1032.66 1032.83 1033.01 1033.21 1033.44 1033.70 1033.96 1034.22 1034.47 1034.69 1034.87 1035.01 1035.12 1035.21 1035.27 1035.33 1035.38 1035.43 1035.47 1035.50 1035.51 1035.48 1035.43 1035.35 1035.24 1035.12
1026.43 1027.01 1027.57 1028.11 1028.62 1029.10 1029.55 1029.98 1030.39 1030.77 1031.13 1031.46 1031.74 1031.99 1032.18 1032.35 1032.48 1032.60 1032.73 1032.86 1033.03 1033.22 1033.43 1033.65 1033.88 1034.10 1034.31 1034.48 1034.64 1034.77 1034.88 1034.99 1035.09 1035.18 1035.27 1035.34 1035.39 1035.41 1035.39 1035.33 1035.23 1035.10 1034.96
1027.12 1027.68 1028.22 1028.73 1029.21 1029.66 1030.08 1030.48 1030.85 1031.19 1031.50 1031.77 1032.00 1032.19 1032.34 1032.45 1032.54 1032.62 1032.71 1032.80 1032.92 1033.06 1033.23 1033.41 1033.59 1033.78 1033.95 1034.12 1034.27 1034.41 1034.55 1034.68 1034.81 1034.94 1035.06 1035.16 1035.22 1035.25 1035.24 1035.17 1035.06 1034.92 1034.76
1027.82 1028.36 1028.87 1029.34 1029.78 1030.19 1030.57 1030.93 1031.26 1031.56 1031.83 1032.07 1032.26 1032.42 1032.55 1032.64 1032.71 1032.76 1032.82 1032.88 1032.96 1033.06 1033.17 1033.30 1033.44 1033.57 1033.71 1033.84 1033.98 1034.11 1034.25 1034.39 1034.53 1034.67 1034.80 1034.91 1034.98 1035.01 1034.99 1034.92 1034.81 1034.66 1034.49
Thickness
5604 5603 5602 5601 5601 5600 5600 5600 5599 5598 5598 5598 5598 5599 5599 5600 5601 5603 5604 5606 5608 5609 5610 5612 5612 5612 5613 5614 5615 5615 5615 5615 5616 5616 5616 5616 5616 5616 5616 5616 5616 5616 5616
5597 5596 5595 5593 5593 5592 5592 5592 5591 5590 5589 5588 5588 5588 5589 5590 5591 5593 5594 5596 5598 5599 5601 5602 5603 5604 5605 5605 5606 5606 5607 5607 5607 5608 5608 5608 5608 5608 5608 5608 5608 5608 5609
5590 5589 5588 5586 5585 5584 5584 5583 5582 5581 5579 5579 5578 5578 5578 5579 5580 5582 5583 5585 5587 5588 5590 5592 5593 5594 5595 5596 5597 5597 5598 5598 5598 5599 5599 5599 5599 5600 5600 5600 5600 5600 5600
5582 5581 5580 5578 5577 5576 5575 5574 5573 5571 5569 5568 5567 5567 5567 5568 5569 5571 5572 5574 5575 5576 5578 5580 5582 5583 5584 5586 5587 5588 5588 5589 5589 5589 5590 5590 5590 5590 5591 5591 5591 5591 5592
5574 5573 5572 5570 5569 5567 5566 5565 5563 5562 5559 5557 5556 5555 5555 5556 5558 5559 5561 5562 5564 5565 5566 5568 5570 5571 5573 5575 5576 5577 5578 5579 5579 5580 5580 5581 5581 5581 5581 5582 5582 5582 5582
5565 5565 5563 5561 5560 5559 5557 5555 5553 5551 5549 5548 5546 5544 5543 5544 5546 5548 5549 5551 5552 5554 5555 5556 5558 5559 5561 5563 5565 5566 5568 5569 5569 5570 5570 5571 5571 5571 5571 5572 5572 5572 5573
5556 5556 5554 5552 5551 5550 5549 5547 5544 5541 5538 5538 5535 5531 5531 5532 5534 5536 5537 5539 5540 5542 5543 5545 5546 5548 5549 5551 5553 5555 5556 5558 5559 5560 5560 5561 5561 5561 5562 5562 5562 5563 5563
5547 5546 5546 5544 5542 5541 5539 5538 5537 5533 5530 5530 5528 5523 5519 5519 5521 5523 5525 5527 5528 5530 5531 5533 5534 5536 5537 5539 5541 5543 5545 5547 5548 5549 5549 5550 5551 5551 5552 5552 5552 5552 5553
5538 5538 5537 5535 5533 5532 5531 5529 5529 5528 5523 5520 5521 5519 5514 5512 5508 5510 5512 5514 5516 5518 5519 5521 5522 5524 5526 5527 5529 5531 5532 5534 5536 5537 5538 5539 5540 5541 5541 5542 5542 5542 5543
5527 5528 5527 5526 5524 5523 5522 5520 5520 5519 5517 5513 5510 5510 5509 5507 5501 5498 5498 5501 5503 5505 5507 5509 5510 5512 5514 5516 5517 5519 5520 5522 5523 5525 5526 5527 5528 5529 5530 5531 5532 5532 5532
5516 5516 5517 5516 5514 5514 5512 5511 5509 5509 5508 5507 5504 5500 5497 5495 5494 5491 5488 5488 5490 5493 5495 5497 5499 5501 5502 5504 5505 5507 5508 5510 5511 5513 5514 5515 5516 5517 5518 5520 5521 5521 5522
5504 5505 5505 5504 5504 5503 5502 5501 5500 5499 5499 5498 5496 5495 5493 5490 5486 5483 5479 5477 5478 5480 5483 5485 5487 5489 5491 5492 5493 5494 5496 5497 5499 5500 5502 5503 5504 5505 5506 5508 5509 5510 5511
5493 5493 5494 5493 5492 5492 5492 5491 5490 5490 5489 5488 5487 5486 5485 5485 5482 5478 5474 5468 5467 5468 5471 5474 5476 5478 5479 5481 5482 5482 5484 5485 5486 5488 5489 5491 5492 5493 5495 5496 5498 5499 5499
5484 5483 5482 5482 5481 5480 5480 5480 5479 5480 5480 5479 5478 5476 5475 5475 5474 5472 5469 5463 5458 5457 5460 5463 5465 5467 5468 5469 5470 5471 5472 5473 5474 5475 5477 5478 5480 5481 5482 5483 5485 5486 5487
5471 5472 5471 5470 5469 5469 5469 5469 5469 5469 5469 5469 5468 5467 5466 5465 5464 5463 5462 5460 5455 5451 5452 5453 5454 5457 5457 5458 5459 5460 5460 5461 5462 5463 5465 5466 5468 5469 5471 5472 5472 5473 5475
5460 5460 5459 5458 5458 5457 5457 5458 5458 5458 5458 5458 5458 5457 5456 5455 5453 5453 5452 5451 5449 5447 5445 5445 5444 5446 5446 5447 5448 5448 5449 5450 5451 5452 5454 5455 5456 5458 5459 5460 5461 5461 5462
5448 5448 5448 5447 5447 5446 5446 5447 5447 5447 5447 5447 5447 5447 5446 5445 5444 5442 5441 5440 5439 5437 5435 5434 5433 5434 5435 5436 5436 5437 5438 5439 5440 5441 5442 5444 5445 5446 5447 5448 5449 5449 5450
5436 5437 5436 5435 5435 5436 5436 5436 5436 5436 5437 5437 5436 5436 5436 5435 5434 5432 5431 5429 5428 5428 5426 5423 5422 5422 5423 5424 5425 5425 5426 5427 5428 5429 5431 5432 5433 5434 5435 5436 5437 5437 5437
5424 5424 5423 5424 5424 5424 5424 5425 5425 5426 5426 5426 5426 5426 5425 5425 5423 5422 5421 5419 5419 5418 5417 5415 5413 5412 5412 5412 5412 5413 5413 5414 5416 5417 5419 5420 5421 5423 5424 5424 5424 5425 5425
5411 5411 5411 5411 5412 5412 5413 5413 5413 5414 5414 5414 5415 5415 5415 5415 5414 5413 5411 5410 5409 5407 5406 5405 5403 5401 5400 5400 5400 5400 5401 5402 5403 5405 5406 5407 5409 5410 5411 5412 5412 5412 5413
5398 5398 5398 5398 5399 5400 5401 5402 5403 5403 5402 5403 5403 5404 5404 5405 5405 5404 5403 5401 5399 5397 5395 5394 5392 5390 5389 5388 5389 5389 5389 5389 5391 5392 5393 5395 5397 5398 5398 5398 5399 5399 5400
5385 5385 5385 5386 5387 5389 5391 5392 5392 5391 5391 5392 5392 5393 5393 5394 5394 5394 5394 5393 5392 5389 5387 5385 5382 5382 5381 5380 5379 5377 5376 5376 5378 5381 5380 5382 5384 5385 5386 5386 5387 5387 5388
5373 5373 5373 5374 5376 5377 5379 5381 5381 5381 5381 5381 5381 5382 5383 5383 5383 5382 5382 5381 5380 5380 5380 5379 5376 5375 5373 5372 5369 5367 5366 5366 5368 5368 5366 5370 5371 5372 5374 5374 5374 5375 5376
5362 5362 5362 5363 5364 5366 5367 5369 5369 5368 5369 5370 5371 5371 5372 5372 5372 5372 5371 5369 5369 5369 5369 5368 5369 5368 5365 5362 5360 5359 5357 5354 5354 5354 5353 5354 5357 5359 5361 5362 5362 5363 5363
5350 5351 5352 5352 5352 5354 5355 5357 5357 5356 5357 5358 5359 5360 5361 5361 5361 5361 5360 5359 5357 5357 5356 5356 5356 5355 5353 5351 5348 5345 5342 5341 5342 5342 5341 5341 5344 5346 5348 5350 5350 5350 5349
5338 5339 5340 5340 5341 5342 5344 5345 5346 5346 5346 5346 5347 5348 5349 5350 5350 5350 5350 5348 5347 5346 5345 5343 5343 5342 5340 5338 5336 5335 5333 5331 5330 5330 5330 5329 5330 5331 5333 5337 5337 5336 5336